Lewiston, ID

6:16 PM PST on February 09, 2016 (GMT -0800)
Lewiston-Nez Perce County

Weather History for KLWS - October, 2010

Change the Weather History Date:

Friday, October 15, 2010

  Actual Average Record
Temperature  
Mean Temperature 51 °F 52 °F  
Max Temperature 60 °F 63 °F 82 °F (1963)
Min Temperature 41 °F 41 °F 28 °F (1969)
Degree Days  
Heating Degree Days 14 13  
Month to date heating degree days 102 152  
Since 1 July heating degree days 185 266  
Cooling Degree Days 0 0  
Month to date cooling degree days 10 1  
Year to date cooling degree days 713 805  
Growing Degree Days 2 (Base 50)    
Moisture  
Dew Point 34 °F    
Average Humidity 52    
Maximum Humidity 74    
Minimum Humidity 29    
Precipitation  
Precipitation 0.00 in 0.03 in 0.70 in (1904)
Month to date precipitation 0.65 0.41  
Year to date precipitation 11.11 9.61  
Snow  
Snow 0.00 in 0.00 in 0.00 in (1995)
Month to date snowfall 0.0 0.0  
Since 1 July snowfall 0.0 0.0  
Since 1 September snowfall 0.0 0.0  
Snow Depth 0.00 in    
Sea Level Pressure  
Sea Level Pressure 30.19 in    
Wind  
Wind Speed 8 mph (WNW)    
Max Wind Speed 26 mph    
Max Gust Speed 35 mph    
Visibility 10 miles    
Events      
T = Trace of Precipitation, MM = Missing Value Source: NWS Daily Summary

Daily Weather History Graph

Daily Weather History Graph

Search for Another Location

Airport or City:

Trip Planner

Search our weather history database for the weather conditions in past years. The results will help you decide how hot, cold, wet, or windy it might be!

Date:

Astronomy

Oct. 15, 2010 Rise Set
Actual Time 7:05 AM PDT 6:01 PM PDT
Civil Twilight 6:35 AM PDT 6:31 PM PDT
Nautical Twilight 6:00 AM PDT 7:06 PM PDT
Astronomical Twilight 5:25 AM PDT 7:41 PM PDT
Moon 2:48 PM PDT (10/15) No Moon Set
Length of Visible Light 11h 56m
Length of Day
10h 55m
First Quarter, 59% of the Moon is Illuminated
Oct 15
First Quarter
Oct 22
Full
Oct 30
Last Quarter
Nov 5
New
Nov 13
First Quarter

Hourly Weather History & Observations

Time (PDT) Temp. Windchill Dew Point Humidity Pressure Visibility Wind Dir Wind Speed Gust Speed Precip Events Conditions
12:56 AM 52.0 °F - 42.1 °F 69% 30.03 in 10.0 mi Calm Calm - N/A   Mostly Cloudy
1:56 AM 51.1 °F - 42.1 °F 71% 30.04 in 10.0 mi Calm Calm - N/A   Mostly Cloudy
2:56 AM 50.0 °F - 42.1 °F 74% 30.05 in 10.0 mi SE 4.6 mph - N/A   Clear
3:56 AM 51.1 °F - 42.1 °F 71% 30.06 in 10.0 mi SE 3.5 mph - N/A   Clear
4:56 AM 54.0 °F - 41.0 °F 62% 30.09 in 10.0 mi WSW 5.8 mph - N/A   Mostly Cloudy
5:56 AM 54.0 °F - 43.0 °F 66% 30.12 in 10.0 mi NW 10.4 mph - N/A   Partly Cloudy
6:56 AM 54.0 °F - 39.9 °F 59% 30.15 in 10.0 mi WNW 18.4 mph 29.9 mph N/A   Mostly Cloudy
7:56 AM 54.0 °F - 37.0 °F 53% 30.19 in 9.0 mi WNW 17.3 mph 26.5 mph N/A   Mostly Cloudy
8:56 AM 54.0 °F - 32.0 °F 43% 30.22 in 10.0 mi WNW 11.5 mph 24.2 mph N/A   Overcast
9:56 AM 54.0 °F - 30.9 °F 41% 30.25 in 10.0 mi NW 17.3 mph - N/A   Mostly Cloudy
10:56 AM 57.0 °F - 32.0 °F 39% 30.26 in 10.0 mi NW 16.1 mph 21.9 mph N/A   Clear
11:56 AM 57.9 °F - 33.1 °F 39% 30.27 in 10.0 mi NNW 12.7 mph - N/A   Clear
12:56 PM 60.1 °F - 30.9 °F 33% 30.26 in 10.0 mi NW 16.1 mph 21.9 mph N/A   Clear
1:56 PM 60.1 °F - 28.9 °F 31% 30.25 in 10.0 mi NNW 6.9 mph 17.3 mph N/A   Clear
2:56 PM 59.0 °F - 28.9 °F 32% 30.25 in 10.0 mi WNW 11.5 mph - N/A   Clear
3:56 PM 59.0 °F - 30.0 °F 33% 30.24 in 10.0 mi NW 8.1 mph - N/A   Clear
4:56 PM 57.0 °F - 30.0 °F 36% 30.24 in 10.0 mi WNW 5.8 mph - N/A   Clear
5:56 PM 54.0 °F - 28.9 °F 38% 30.25 in 10.0 mi NNW 4.6 mph - N/A   Clear
6:56 PM 53.1 °F - 28.0 °F 38% 30.25 in 10.0 mi Calm Calm - N/A   Clear
7:56 PM 48.0 °F - 30.9 °F 52% 30.26 in 10.0 mi SSE 4.6 mph - N/A   Clear
8:56 PM 46.9 °F - 30.9 °F 54% 30.24 in 10.0 mi SSW 8.1 mph - N/A   Clear
9:56 PM 46.0 °F - 30.0 °F 54% 30.24 in 10.0 mi Calm Calm - N/A   Clear
10:56 PM 43.0 °F 41.3 °F 30.0 °F 60% 30.22 in 10.0 mi South 3.5 mph - N/A   Clear
11:56 PM 43.0 °F - 30.9 °F 62% 30.21 in 10.0 mi Calm Calm - N/A   Clear